User: anonymous   Login
Location: Unspecified
(0.0000°N, 0.0000°E)
Time: 01:34:40
(UTC+01:00)
Language:

NOSS 3-3 (A) - Orbit

View from above orbital plane
View from above orbital plane
View from above satellite
View from above satellite

Ground track
Ground track

The orbit data is extracted from the following two-line orbital elements,

1 28537U 05004A   15061.22291207 0.00000000  00000-0  00000-0 0    05
2 28537  63.4287 163.3162 0190000 359.3602   0.6398 13.40674038    09
Epoch (UTC): 02 March 2015 05:20:59
Eccentricity: 0.0190000
inclination: 63.4287°
perigee height: 964 km
apogee height: 1249 km
right ascension of ascending node: 163.3162°
argument of perigee: 359.3602°
revolutions per day: 13.40674038
mean anomaly at epoch: 0.6398°
orbit number at epoch: 0

The dashed part of the orbit path shows where the satellite is in the earth's shadow,  

DLR